Location: Ahausen
(50.4985°N, 8.2722°E)
Time: 02:40:56
(UTC+00:00)

Ariane Rocket - Pass Details

Date: 18 September 2020
Orbit: 761 x 769 km, 98.7° (Epoch: 22 October)

Event Time Altitude Azimuth Distance (km) Brightness Sun altitude
Exits shadow 19:49:59 - 193° (SSW) 2,648 5.6 -21.5°
Reaches altitude 10° 19:50:57 10° 197° (SSW) 2,294 5.3 -21.6°
Maximum altitude 19:55:35 36° 264° (W) 1,211 4.4 -22.2°
Drops below altitude 10° 20:00:15 10° 330° (NNW) 2,315 6.4 -22.8°
Sets 20:02:46 0° 339° (NNW) 3,248 7.1 -23.2°
